Location: RyutenAO
(34.8939°N, 134.0022°E)
Time: 04:38:42
(UTC+09:00)

N. Korean satellite - Pass Details

Date: 03 December 2022
Orbit: 407 x 442 km, 97.3° (Epoch: 05 February)

Event Time Altitude Azimuth Distance (km) Brightness Sun altitude
Rises 05:20:47 0° 10° (N) 2,511 10.1 -18.8°
Reaches altitude 10° 05:22:51 10° 9° (N) 1,625 9.2 -18.4°
Maximum altitude 05:26:20 81° 284° (WNW) 472 6.3 -17.7°
Drops below altitude 10° 05:29:45 10° 195° (SSW) 1,586 9.2 -17.1°
Sets 05:31:45 0° 195° (SSW) 2,444 10.2 -16.7°
